| time (UTC) | temp F | wind direction | speed knots | gust knots | rain 1hr in | rain 24hr in | rain mn in | humidity % | barometer mb |
| 20260506232525 | 69 | 0 | 0.0 | 0.0 | 0.00 | 0.00 | 0.00 | 71 | 1018.2 |
| 20260506232025 | 69 | 0 | 0.0 | 0.0 | 0.00 | 0.00 | 0.00 | 71 | 1018.3 |
| 20260506231537 | 69 | 0 | 0.0 | 0.0 | 0.00 | 0.00 | 0.00 | 70 | 1018.3 |
| 20260506231024 | 70 | 0 | 0.0 | 0.0 | 0.00 | 0.00 | 0.00 | 69 | 1018.5 |
| 20260506230521 | 70 | 0 | 0.0 | 0.0 | 0.00 | 0.00 | 0.00 | 68 | 1018.3 |
| 20260506230043 | 71 | 0 | 0.0 | 0.0 | 0.00 | 0.00 | 0.00 | 67 | 1018.3 |
| 20260506225524 | 71 | 0 | 0.0 | 0.0 | 0.00 | 0.00 | 0.00 | 66 | 1018.3 |
| 20260506225022 | 71 | 0 | 0.0 | 0.0 | 0.00 | 0.00 | 0.00 | 66 | 1018.5 |
| 20260506224541 | 72 | 0 | 0.0 | 2.6 | 0.00 | 0.00 | 0.00 | 66 | 1018.6 |
| 20260506224021 | 72 | 0 | 0.0 | 3.5 | 0.00 | 0.00 | 0.00 | 66 | 1018.8 |
| 20260506223521 | 71 | 110 | 0.0 | 3.5 | 0.00 | 0.00 | 0.00 | 68 | 1018.8 |
| 20260506223038 | 71 | 0 | 0.9 | 3.5 | 0.00 | 0.00 | 0.00 | 66 | 1018.7 |
| 20260506222526 | 72 | 128 | 0.9 | 3.5 | 0.00 | 0.00 | 0.00 | 64 | 1018.8 |
| 20260506222026 | 73 | 0 | 0.0 | 1.7 | 0.00 | 0.00 | 0.00 | 65 | 1018.9 |
| 20260506221538 | 72 | 0 | 0.0 | 2.6 | 0.00 | 0.00 | 0.00 | 67 | 1018.9 |
| 20260506221028 | 72 | 115 | 0.0 | 2.6 | 0.00 | 0.00 | 0.00 | 67 | 1018.9 |
| 20260506220525 | 71 | 142 | 0.9 | 2.6 | 0.00 | 0.00 | 0.00 | 65 | 1019.0 |
| 20260506220038 | 72 | 0 | 0.9 | 2.6 | 0.00 | 0.00 | 0.00 | 65 | 1019.1 |
| 20260506215525 | 72 | 102 | 0.9 | 2.6 | 0.00 | 0.00 | 0.00 | 65 | 1019.3 |
| 20260506215028 | 72 | 0 | 0.0 | 2.6 | 0.00 | 0.00 | 0.00 | 66 | 1019.3 |
| 20260506214538 | 72 | 0 | 0.0 | 3.5 | 0.00 | 0.00 | 0.00 | 67 | 1019.3 |
| 20260506214025 | 71 | 0 | 0.0 | 3.5 | 0.00 | 0.00 | 0.00 | 69 | 1019.3 |
| 20260506213524 | 71 | 115 | 0.0 | 2.6 | 0.00 | 0.00 | 0.00 | 68 | 1019.3 |
| 20260506213048 | 71 | 145 | 0.0 | 4.3 | 0.00 | 0.00 | 0.00 | 68 | 1019.4 |
| 20260506212522 | 71 | 132 | 0.0 | 4.3 | 0.00 | 0.00 | 0.00 | 68 | 1019.5 |
| 20260506212022 | 70 | 132 | 0.9 | 4.3 | 0.00 | 0.00 | 0.00 | 68 | 1019.4 |
| 20260506211539 | 69 | 0 | 0.0 | 4.3 | 0.00 | 0.00 | 0.00 | 71 | 1019.4 |
| 20260506211027 | 69 | 129 | 0.9 | 4.3 | 0.00 | 0.00 | 0.00 | 67 | 1019.4 |
| 20260506210526 | 70 | 137 | 0.9 | 4.3 | 0.00 | 0.00 | 0.00 | 68 | 1019.4 |
| 20260506210038 | 70 | 141 | 0.9 | 3.5 | 0.00 | 0.00 | 0.00 | 67 | 1019.5 |
| 20260506205524 | 70 | 133 | 0.0 | 3.5 | 0.00 | 0.00 | 0.00 | 69 | 1019.4 |
| 20260506205028 | 70 | 130 | 0.9 | 3.5 | 0.00 | 0.00 | 0.00 | 69 | 1019.5 |
| 20260506204544 | 71 | 119 | 0.0 | 2.6 | 0.00 | 0.00 | 0.00 | 68 | 1019.5 |
| 20260506204029 | 71 | 135 | 0.0 | 3.5 | 0.00 | 0.00 | 0.00 | 69 | 1019.6 |
| 20260506203525 | 70 | 0 | 0.0 | 3.5 | 0.00 | 0.00 | 0.00 | 70 | 1019.6 |
| 20260506203038 | 69 | 124 | 0.0 | 3.5 | 0.00 | 0.00 | 0.00 | 72 | 1019.6 |
| 20260506202525 | 69 | 108 | 0.9 | 3.5 | 0.00 | 0.00 | 0.00 | 70 | 1019.8 |
| 20260506202025 | 69 | 146 | 0.9 | 3.5 | 0.00 | 0.00 | 0.00 | 69 | 1019.8 |
| 20260506201538 | 69 | 143 | 0.0 | 5.2 | 0.00 | 0.00 | 0.00 | 69 | 1019.8 |
| 20260506201025 | 69 | 137 | 0.0 | 5.2 | 0.00 | 0.00 | 0.00 | 74 | 1019.9 |
| 20260506200528 | 69 | 139 | 1.7 | 5.2 | 0.00 | 0.00 | 0.00 | 70 | 1019.9 |
| 20260506200037 | 68 | 124 | 0.0 | 3.5 | 0.00 | 0.00 | 0.00 | 73 | 1020.0 |
| 20260506195525 | 69 | 146 | 0.9 | 3.5 | 0.00 | 0.00 | 0.00 | 69 | 1020.1 |
| 20260506195025 | 69 | 139 | 0.0 | 3.5 | 0.00 | 0.00 | 0.00 | 70 | 1020.1 |
| 20260506194541 | 69 | 141 | 0.0 | 2.6 | 0.00 | 0.00 | 0.00 | 70 | 1020.1 |
| 20260506194024 | 69 | 0 | 0.9 | 2.6 | 0.00 | 0.00 | 0.00 | 69 | 1020.1 |
| 20260506193522 | 70 | 145 | 0.0 | 3.5 | 0.00 | 0.00 | 0.00 | 68 | 1020.1 |
| 20260506193040 | 70 | 0 | 0.0 | 3.5 | 0.00 | 0.00 | 0.00 | 71 | 1020.2 |
| 20260506192528 | 70 | 128 | 0.0 | 3.5 | 0.00 | 0.00 | 0.00 | 69 | 1020.2 |
| 20260506192022 | 70 | 0 | 0.9 | 3.5 | 0.00 | 0.00 | 0.00 | 70 | 1020.3 |
| 20260506191541 | 69 | 133 | 0.0 | 1.7 | 0.00 | 0.00 | 0.00 | 73 | 1020.3 |
| 20260506191022 | 69 | 138 | 0.0 | 1.7 | 0.00 | 0.00 | 0.00 | 73 | 1020.3 |
| 20260506190526 | 68 | 0 | 0.0 | 1.7 | 0.00 | 0.00 | 0.00 | 70 | 1020.4 |
| 20260506190038 | 68 | 0 | 0.0 | 1.7 | 0.00 | 0.00 | 0.00 | 72 | 1020.4 |
| 20260506185525 | 67 | 0 | 0.0 | 1.7 | 0.00 | 0.00 | 0.00 | 74 | 1020.3 |
| 20260506185026 | 67 | 123 | 0.0 | 1.7 | 0.00 | 0.00 | 0.00 | 75 | 1020.4 |
| 20260506184537 | 66 | 0 | 0.0 | 0.9 | 0.00 | 0.00 | 0.00 | 76 | 1020.4 |
| 20260506184025 | 65 | 0 | 0.0 | 1.7 | 0.00 | 0.00 | 0.00 | 77 | 1020.3 |
| 20260506183525 | 64 | 136 | 0.0 | 1.7 | 0.00 | 0.00 | 0.00 | 77 | 1020.5 |
| 20260506183039 | 64 | 130 | 0.0 | 1.7 | 0.00 | 0.00 | 0.00 | 78 | 1020.5 |
| 20260506182525 | 64 | 138 | 0.0 | 1.7 | 0.00 | 0.00 | 0.00 | 78 | 1020.5 |
| 20260506182024 | 63 | 133 | 0.0 | 1.7 | 0.00 | 0.00 | 0.00 | 77 | 1020.5 |
| 20260506181538 | 64 | 117 | 0.0 | 1.7 | 0.00 | 0.00 | 0.00 | 78 | 1020.5 |
| 20260506181026 | 63 | 124 | 0.0 | 1.7 | 0.00 | 0.00 | 0.00 | 79 | 1020.5 |
| 20260506180525 | 63 | 0 | 0.0 | 0.9 | 0.00 | 0.00 | 0.00 | 79 | 1020.4 |
| 20260506180047 | 63 | 0 | 0.0 | 0.9 | 0.00 | 0.00 | 0.00 | 78 | 1020.5 |
| 20260506175525 | 62 | 0 | 0.0 | 1.7 | 0.00 | 0.00 | 0.00 | 80 | 1020.4 |
| 20260506175028 | 62 | 0 | 0.0 | 1.7 | 0.00 | 0.00 | 0.00 | 79 | 1020.3 |
| 20260506174542 | 62 | 124 | 0.0 | 1.7 | 0.00 | 0.00 | 0.00 | 79 | 1020.4 |
| 20260506174025 | 62 | 127 | 0.0 | 0.9 | 0.00 | 0.00 | 0.00 | 80 | 1020.4 |
| 20260506173525 | 61 | 125 | 0.0 | 0.9 | 0.00 | 0.00 | 0.00 | 80 | 1020.4 |
| 20260506173039 | 61 | 132 | 0.0 | 1.7 | 0.00 | 0.00 | 0.00 | 80 | 1020.5 |
| 20260506172525 | 61 | 131 | 0.0 | 1.7 | 0.00 | 0.00 | 0.00 | 82 | 1020.4 |
| 20260506172025 | 60 | 0 | 0.0 | 1.7 | 0.00 | 0.00 | 0.00 | 82 | 1020.4 |
| 20260506171549 | 60 | 0 | 0.0 | 1.7 | 0.00 | 0.00 | 0.00 | 82 | 1020.5 |
| 20260506171025 | 60 | 0 | 0.0 | 0.9 | 0.00 | 0.00 | 0.00 | 83 | 1020.5 |
| 20260506170525 | 59 | 130 | 0.0 | 1.7 | 0.00 | 0.00 | 0.00 | 83 | 1020.5 |
| 20260506170055 | 59 | 0 | 0.0 | 1.7 | 0.00 | 0.00 | 0.00 | 83 | 1020.5 |
| 20260506165525 | 59 | 131 | 0.0 | 1.7 | 0.00 | 0.00 | 0.00 | 84 | 1020.4 |
| 20260506165025 | 59 | 0 | 0.0 | 1.7 | 0.00 | 0.00 | 0.00 | 85 | 1020.4 |
| 20260506164540 | 58 | 127 | 0.0 | 1.7 | 0.00 | 0.00 | 0.00 | 84 | 1020.5 |
| 20260506164022 | 58 | 0 | 0.0 | 0.9 | 0.00 | 0.00 | 0.00 | 85 | 1020.5 |
| 20260506163525 | 58 | 0 | 0.0 | 0.9 | 0.00 | 0.00 | 0.00 | 85 | 1020.4 |
| 20260506163057 | 58 | 0 | 0.0 | 0.0 | 0.00 | 0.00 | 0.00 | 85 | 1020.5 |
| 20260506162528 | 58 | 0 | 0.0 | 0.0 | 0.00 | 0.00 | 0.00 | 85 | 1020.5 |
| 20260506162029 | 57 | 0 | 0.0 | 0.9 | 0.00 | 0.00 | 0.00 | 85 | 1020.5 |
| 20260506161538 | 57 | 0 | 0.0 | 0.9 | 0.00 | 0.00 | 0.00 | 86 | 1020.4 |
| 20260506161025 | 57 | 0 | 0.0 | 0.9 | 0.00 | 0.00 | 0.00 | 86 | 1020.5 |
| 20260506160525 | 57 | 0 | 0.0 | 0.9 | 0.00 | 0.00 | 0.00 | 86 | 1020.5 |
| 20260506160039 | 56 | 0 | 0.0 | 0.0 | 0.00 | 0.00 | 0.00 | 87 | 1020.5 |
| 20260506155525 | 56 | 0 | 0.0 | 0.0 | 0.00 | 0.00 | 0.00 | 87 | 1020.5 |
| 20260506155025 | 56 | 0 | 0.0 | 0.0 | 0.00 | 0.00 | 0.00 | 88 | 1020.4 |
| 20260506154604 | 56 | 0 | 0.0 | 0.0 | 0.00 | 0.00 | 0.00 | 88 | 1020.5 |
| 20260506154028 | 55 | 0 | 0.0 | 0.0 | 0.00 | 0.00 | 0.00 | 89 | 1020.5 |
| 20260506153526 | 55 | 0 | 0.0 | 0.0 | 0.00 | 0.00 | 0.00 | 90 | 1020.5 |
| 20260506153049 | 55 | 0 | 0.0 | 0.0 | 0.00 | 0.00 | 0.00 | 90 | 1020.5 |
| 20260506152526 | 55 | 0 | 0.0 | 0.0 | 0.00 | 0.00 | 0.00 | 90 | 1020.4 |
| 20260506152025 | 55 | 0 | 0.0 | 0.0 | 0.00 | 0.00 | 0.00 | 91 | 1020.4 |
| 20260506151539 | 54 | 0 | 0.0 | 0.0 | 0.00 | 0.00 | 0.00 | 91 | 1020.4 |
| 20260506151021 | 54 | 0 | 0.0 | 0.0 | 0.00 | 0.00 | 0.00 | 91 | 1020.4 |
| 20260506150525 | 54 | 0 | 0.0 | 0.0 | 0.00 | 0.00 | 0.00 | 91 | 1020.4 |
| 20260506150040 | 54 | 0 | 0.0 | 0.0 | 0.00 | 0.00 | 0.00 | 91 | 1020.3 |
| 20260506145529 | 54 | 0 | 0.0 | 0.0 | 0.00 | 0.00 | 0.00 | 91 | 1020.3 |
| 20260506145025 | 54 | 0 | 0.0 | 0.0 | 0.00 | 0.00 | 0.00 | 91 | 1020.3 |
| 20260506144537 | 54 | 0 | 0.0 | 0.0 | 0.00 | 0.00 | 0.00 | 90 | 1020.4 |
| 20260506144025 | 53 | 0 | 0.0 | 0.0 | 0.00 | 0.00 | 0.00 | 90 | 1020.4 |
| 20260506143529 | 53 | 0 | 0.0 | 0.0 | 0.00 | 0.00 | 0.00 | 90 | 1020.2 |
| 20260506143047 | 53 | 0 | 0.0 | 0.0 | 0.00 | 0.00 | 0.00 | 91 | 1020.1 |
| 20260506142524 | 53 | 0 | 0.0 | 0.0 | 0.00 | 0.00 | 0.00 | 91 | 1020.2 |
| 20260506142024 | 53 | 0 | 0.0 | 0.0 | 0.00 | 0.00 | 0.00 | 91 | 1020.2 |
| 20260506141541 | 53 | 0 | 0.0 | 0.0 | 0.00 | 0.00 | 0.00 | 91 | 1020.1 |
| 20260506141025 | 53 | 0 | 0.0 | 0.0 | 0.00 | 0.00 | 0.00 | 92 | 1020.1 |
| 20260506140526 | 53 | 0 | 0.0 | 0.0 | 0.00 | 0.00 | 0.00 | 92 | 1020.0 |
| 20260506140039 | 53 | 0 | 0.0 | 0.0 | 0.00 | 0.00 | 0.00 | 92 | 1019.9 |
| 20260506135522 | 53 | 0 | 0.0 | 0.0 | 0.00 | 0.00 | 0.00 | 92 | 1019.9 |
| 20260506135025 | 53 | 0 | 0.0 | 0.0 | 0.00 | 0.00 | 0.00 | 92 | 1019.7 |
| 20260506134537 | 53 | 0 | 0.0 | 0.0 | 0.00 | 0.00 | 0.00 | 92 | 1019.8 |
| 20260506134025 | 53 | 0 | 0.0 | 0.0 | 0.00 | 0.00 | 0.00 | 92 | 1019.8 |
| 20260506133525 | 53 | 0 | 0.0 | 0.0 | 0.00 | 0.00 | 0.00 | 92 | 1019.8 |
| 20260506133040 | 53 | 0 | 0.0 | 0.0 | 0.00 | 0.00 | 0.00 | 92 | 1019.8 |
| 20260506132525 | 53 | 0 | 0.0 | 0.0 | 0.00 | 0.00 | 0.00 | 92 | 1019.8 |
| 20260506132025 | 53 | 0 | 0.0 | 0.0 | 0.00 | 0.00 | 0.00 | 92 | 1019.6 |
| 20260506131538 | 53 | 0 | 0.0 | 0.0 | 0.00 | 0.00 | 0.00 | 92 | 1019.7 |
| 20260506131027 | 53 | 0 | 0.0 | 0.0 | 0.00 | 0.00 | 0.00 | 92 | 1019.7 |
| 20260506130524 | 53 | 0 | 0.0 | 0.0 | 0.00 | 0.00 | 0.00 | 92 | 1019.6 |
| 20260506130038 | 53 | 0 | 0.0 | 0.0 | 0.00 | 0.00 | 0.00 | 92 | 1019.6 |
| 20260506125525 | 53 | 0 | 0.0 | 0.0 | 0.00 | 0.00 | 0.00 | 92 | 1019.5 |
| 20260506125028 | 53 | 0 | 0.0 | 0.0 | 0.00 | 0.00 | 0.00 | 92 | 1019.6 |
| 20260506124541 | 53 | 0 | 0.0 | 0.0 | 0.00 | 0.00 | 0.00 | 91 | 1019.5 |
| 20260506124026 | 53 | 0 | 0.0 | 0.0 | 0.00 | 0.00 | 0.00 | 91 | 1019.4 |
| 20260506123522 | 53 | 0 | 0.0 | 0.0 | 0.00 | 0.00 | 0.00 | 91 | 1019.5 |
| 20260506123040 | 53 | 0 | 0.0 | 0.0 | 0.00 | 0.00 | 0.00 | 91 | 1019.5 |
| 20260506122525 | 53 | 0 | 0.0 | 0.0 | 0.00 | 0.00 | 0.00 | 91 | 1019.4 |
| 20260506122025 | 53 | 0 | 0.0 | 0.0 | 0.00 | 0.00 | 0.00 | 91 | 1019.4 |
| 20260506121543 | 53 | 0 | 0.0 | 0.0 | 0.00 | 0.00 | 0.00 | 90 | 1019.4 |
| 20260506121025 | 53 | 0 | 0.0 | 0.0 | 0.00 | 0.00 | 0.00 | 90 | 1019.3 |
| 20260506120525 | 53 | 0 | 0.0 | 0.0 | 0.00 | 0.00 | 0.00 | 90 | 1019.3 |
| 20260506120038 | 53 | 0 | 0.0 | 0.0 | 0.00 | 0.00 | 0.00 | 90 | 1019.3 |
| 20260506115526 | 53 | 0 | 0.0 | 0.0 | 0.00 | 0.00 | 0.00 | 90 | 1019.2 |
| 20260506115025 | 53 | 0 | 0.0 | 0.0 | 0.00 | 0.00 | 0.00 | 89 | 1019.2 |
| 20260506114547 | 53 | 0 | 0.0 | 0.0 | 0.00 | 0.00 | 0.00 | 90 | 1019.3 |
| 20260506114025 | 53 | 0 | 0.0 | 0.9 | 0.00 | 0.00 | 0.00 | 90 | 1019.2 |
| 20260506113525 | 53 | 0 | 0.0 | 0.9 | 0.00 | 0.00 | 0.00 | 90 | 1019.1 |
| 20260506113039 | 53 | 0 | 0.0 | 0.9 | 0.00 | 0.00 | 0.00 | 90 | 1019.0 |
| 20260506112528 | 53 | 0 | 0.0 | 0.9 | 0.00 | 0.00 | 0.00 | 90 | 1019.0 |
| 20260506112030 | 53 | 0 | 0.0 | 0.9 | 0.00 | 0.00 | 0.00 | 90 | 1019.0 |
| 20260506111541 | 53 | 0 | 0.0 | 0.9 | 0.00 | 0.00 | 0.00 | 91 | 1019.0 |
| 20260506111022 | 53 | 0 | 0.0 | 0.0 | 0.00 | 0.00 | 0.00 | 91 | 1018.8 |
| 20260506110530 | 53 | 0 | 0.0 | 0.0 | 0.00 | 0.00 | 0.00 | 91 | 1018.9 |
| 20260506110038 | 53 | 0 | 0.0 | 0.0 | 0.00 | 0.00 | 0.00 | 91 | 1018.8 |
| 20260506105526 | 53 | 0 | 0.0 | 0.0 | 0.00 | 0.00 | 0.00 | 92 | 1018.8 |
| 20260506105025 | 53 | 0 | 0.0 | 0.0 | 0.00 | 0.00 | 0.00 | 92 | 1018.8 |
| 20260506104538 | 52 | 0 | 0.0 | 0.0 | 0.00 | 0.00 | 0.00 | 92 | 1018.7 |
| 20260506104025 | 52 | 0 | 0.0 | 0.0 | 0.00 | 0.00 | 0.00 | 93 | 1018.8 |
| 20260506103526 | 52 | 0 | 0.0 | 0.0 | 0.00 | 0.00 | 0.00 | 93 | 1018.9 |
| 20260506103038 | 52 | 0 | 0.0 | 0.0 | 0.00 | 0.00 | 0.00 | 93 | 1018.8 |
| 20260506102527 | 52 | 0 | 0.0 | 0.0 | 0.00 | 0.00 | 0.00 | 93 | 1018.7 |
| 20260506102025 | 52 | 0 | 0.0 | 0.0 | 0.00 | 0.00 | 0.00 | 93 | 1018.7 |
| 20260506101543 | 52 | 0 | 0.0 | 0.0 | 0.00 | 0.00 | 0.00 | 93 | 1018.8 |
| 20260506101026 | 52 | 0 | 0.0 | 0.0 | 0.00 | 0.00 | 0.00 | 93 | 1018.7 |
| 20260506100527 | 52 | 0 | 0.0 | 0.0 | 0.00 | 0.00 | 0.00 | 93 | 1018.7 |
| 20260506100042 | 52 | 0 | 0.0 | 0.0 | 0.00 | 0.00 | 0.00 | 93 | 1018.7 |
| 20260506095525 | 53 | 0 | 0.0 | 0.0 | 0.00 | 0.01 | 0.00 | 93 | 1018.7 |
| 20260506095025 | 53 | 0 | 0.0 | 0.0 | 0.00 | 0.01 | 0.00 | 92 | 1018.7 |
| 20260506094549 | 53 | 0 | 0.0 | 0.0 | 0.00 | 0.01 | 0.00 | 92 | 1018.7 |
| 20260506094022 | 53 | 0 | 0.0 | 0.0 | 0.00 | 0.01 | 0.00 | 92 | 1018.8 |
| 20260506093521 | 53 | 0 | 0.0 | 0.0 | 0.00 | 0.01 | 0.00 | 92 | 1018.8 |
| 20260506093038 | 52 | 0 | 0.0 | 0.0 | 0.00 | 0.01 | 0.00 | 92 | 1018.8 |
| 20260506092525 | 52 | 0 | 0.0 | 0.0 | 0.00 | 0.01 | 0.00 | 92 | 1018.7 |
| 20260506092025 | 52 | 0 | 0.0 | 0.0 | 0.00 | 0.01 | 0.00 | 92 | 1018.7 |
| 20260506091538 | 52 | 0 | 0.0 | 0.0 | 0.00 | 0.01 | 0.00 | 93 | 1018.7 |
| 20260506091025 | 52 | 0 | 0.0 | 0.0 | 0.00 | 0.01 | 0.00 | 93 | 1018.7 |
| 20260506090525 | 52 | 0 | 0.0 | 0.0 | 0.00 | 0.01 | 0.00 | 93 | 1018.6 |
| 20260506090038 | 52 | 0 | 0.0 | 0.0 | 0.00 | 0.01 | 0.00 | 93 | 1018.7 |
| 20260506085525 | 52 | 0 | 0.0 | 0.0 | 0.00 | 0.03 | 0.00 | 93 | 1018.6 |
| 20260506085025 | 52 | 0 | 0.0 | 0.0 | 0.00 | 0.03 | 0.00 | 93 | 1018.6 |
| 20260506084546 | 52 | 0 | 0.0 | 0.0 | 0.00 | 0.03 | 0.00 | 93 | 1018.7 |
| 20260506084026 | 52 | 0 | 0.0 | 0.0 | 0.00 | 0.03 | 0.00 | 93 | 1018.7 |
| 20260506083522 | 52 | 0 | 0.0 | 0.0 | 0.00 | 0.03 | 0.00 | 93 | 1018.7 |
| 20260506083042 | 52 | 0 | 0.0 | 0.0 | 0.00 | 0.03 | 0.00 | 93 | 1018.8 |
| 20260506082521 | 52 | 0 | 0.0 | 0.0 | 0.00 | 0.03 | 0.00 | 93 | 1018.8 |
| 20260506082024 | 52 | 0 | 0.0 | 0.9 | 0.00 | 0.03 | 0.00 | 93 | 1018.7 |
| 20260506081538 | 51 | 0 | 0.0 | 0.9 | 0.00 | 0.03 | 0.00 | 94 | 1018.8 |
| 20260506081023 | 51 | 0 | 0.0 | 0.0 | 0.00 | 0.03 | 0.00 | 94 | 1018.9 |
| 20260506080522 | 51 | 0 | 0.0 | 0.0 | 0.00 | 0.03 | 0.00 | 94 | 1018.7 |
| 20260506073525 | 51 | 0 | 0.0 | 0.0 | 0.00 | 0.08 | 0.00 | 93 | 1018.5 |
| 20260506073043 | 51 | 0 | 0.0 | 0.0 | 0.00 | 0.08 | 0.00 | 93 | 1018.4 |
| 20260506072525 | 51 | 0 | 0.0 | 0.0 | 0.00 | 0.08 | 0.00 | 93 | 1018.4 |
| 20260506072025 | 51 | 0 | 0.0 | 0.0 | 0.00 | 0.08 | 0.00 | 93 | 1018.4 |
| 20260506071542 | 51 | 0 | 0.0 | 0.0 | 0.00 | 0.08 | 0.00 | 92 | 1018.4 |
| 20260506071022 | 51 | 0 | 0.0 | 0.0 | 0.00 | 0.08 | 0.00 | 92 | 1018.4 |
| 20260506070525 | 51 | 0 | 0.0 | 0.0 | 0.00 | 0.08 | 0.00 | 92 | 1018.4 |
| 20260506062025 | 51 | 0 | 0.0 | 0.0 | 0.00 | 0.10 | 0.08 | 93 | 1018.2 |
| 20260506061538 | 51 | 0 | 0.0 | 0.0 | 0.00 | 0.10 | 0.08 | 93 | 1018.2 |
| 20260506061028 | 51 | 0 | 0.0 | 0.0 | 0.00 | 0.10 | 0.08 | 92 | 1018.1 |
| 20260506060526 | 51 | 0 | 0.0 | 0.0 | 0.00 | 0.10 | 0.08 | 92 | 1018.1 |
| 20260506051025 | 52 | 0 | 0.0 | 0.0 | 0.00 | 0.13 | 0.08 | 93 | 1017.8 |
| 20260506050523 | 52 | 0 | 0.0 | 0.0 | 0.00 | 0.13 | 0.08 | 93 | 1017.8 |
| 20260506045027 | 52 | 0 | 0.0 | 0.0 | 0.00 | 0.19 | 0.08 | 92 | 1017.7 |
| 20260506044545 | 52 | 0 | 0.0 | 0.0 | 0.00 | 0.19 | 0.08 | 92 | 1017.7 |
| 20260506044026 | 52 | 0 | 0.0 | 0.0 | 0.00 | 0.19 | 0.08 | 91 | 1017.6 |
| 20260506043529 | 53 | 0 | 0.0 | 0.0 | 0.00 | 0.19 | 0.08 | 91 | 1017.5 |
| 20260506043038 | 53 | 0 | 0.0 | 0.0 | 0.00 | 0.19 | 0.08 | 90 | 1017.4 |
| 20260506042525 | 53 | 0 | 0.0 | 0.0 | 0.00 | 0.19 | 0.08 | 90 | 1017.4 |
| 20260506042024 | 53 | 0 | 0.0 | 0.0 | 0.00 | 0.19 | 0.08 | 90 | 1017.4 |
| 20260506041541 | 53 | 0 | 0.0 | 0.0 | 0.00 | 0.19 | 0.08 | 90 | 1017.1 |
| 20260506041024 | 54 | 0 | 0.0 | 0.0 | 0.00 | 0.19 | 0.08 | 90 | 1017.2 |
| 20260506040524 | 54 | 0 | 0.0 | 0.0 | 0.00 | 0.19 | 0.08 | 89 | 1017.0 |
| 20260506040056 | 54 | 0 | 0.0 | 0.0 | 0.00 | 0.19 | 0.08 | 89 | 1017.0 |
| 20260506035526 | 54 | 0 | 0.0 | 0.0 | 0.00 | 0.21 | 0.08 | 89 | 1016.8 |
| 20260506035027 | 54 | 0 | 0.0 | 0.9 | 0.00 | 0.21 | 0.08 | 88 | 1016.7 |
| 20260506034538 | 54 | 0 | 0.0 | 0.9 | 0.00 | 0.21 | 0.08 | 88 | 1016.7 |
| 20260506034025 | 55 | 0 | 0.0 | 0.9 | 0.00 | 0.21 | 0.08 | 88 | 1016.5 |
| 20260506033525 | 55 | 0 | 0.0 | 0.9 | 0.00 | 0.21 | 0.08 | 88 | 1016.5 |
| 20260506033039 | 55 | 0 | 0.0 | 0.9 | 0.00 | 0.21 | 0.08 | 88 | 1016.5 |
| 20260506032525 | 55 | 0 | 0.0 | 0.9 | 0.00 | 0.21 | 0.08 | 87 | 1016.4 |
| 20260506032025 | 55 | 0 | 0.0 | 0.9 | 0.00 | 0.21 | 0.08 | 87 | 1016.3 |
| 20260506031553 | 56 | 0 | 0.0 | 0.9 | 0.00 | 0.21 | 0.08 | 87 | 1016.3 |
| 20260506031027 | 56 | 0 | 0.0 | 0.9 | 0.00 | 0.21 | 0.08 | 86 | 1016.2 |
| 20260506030527 | 56 | 0 | 0.0 | 0.9 | 0.00 | 0.21 | 0.08 | 86 | 1016.0 |
| 20260506030038 | 56 | 0 | 0.0 | 1.7 | 0.00 | 0.21 | 0.08 | 85 | 1016.1 |
| 20260506025525 | 57 | 0 | 0.0 | 1.7 | 0.00 | 0.21 | 0.08 | 84 | 1015.9 |
| 20260506025025 | 57 | 122 | 0.0 | 1.7 | 0.00 | 0.21 | 0.08 | 83 | 1016.0 |
| 20260506024540 | 58 | 125 | 0.0 | 4.3 | 0.00 | 0.21 | 0.08 | 83 | 1015.9 |
| 20260506024025 | 58 | 0 | 0.9 | 4.3 | 0.00 | 0.21 | 0.08 | 82 | 1016.0 |
| 20260506023524 | 59 | 0 | 0.0 | 3.5 | 0.00 | 0.21 | 0.08 | 80 | 1016.0 |
| 20260506023038 | 60 | 133 | 0.0 | 3.5 | 0.00 | 0.21 | 0.08 | 79 | 1016.0 |
| 20260506022525 | 60 | 0 | 0.0 | 4.3 | 0.00 | 0.21 | 0.08 | 79 | 1016.0 |
| 20260506022025 | 61 | 147 | 0.9 | 4.3 | 0.00 | 0.21 | 0.08 | 78 | 1015.9 |
| 20260506021538 | 61 | 133 | 0.0 | 6.1 | 0.00 | 0.21 | 0.08 | 78 | 1015.8 |
| 20260506021022 | 62 | 139 | 0.9 | 7.0 | 0.00 | 0.21 | 0.08 | 77 | 1015.8 |
| 20260506020527 | 61 | 100 | 0.0 | 7.0 | 0.00 | 0.21 | 0.08 | 79 | 1015.6 |
| 20260506020039 | 62 | 95 | 1.7 | 5.2 | 0.00 | 0.21 | 0.08 | 78 | 1015.6 |
| 20260506015526 | 62 | 137 | 0.9 | 2.6 | 0.00 | 0.21 | 0.08 | 78 | 1015.6 |
| 20260506015026 | 62 | 139 | 0.9 | 6.1 | 0.00 | 0.21 | 0.08 | 78 | 1015.6 |
| 20260506014537 | 62 | 0 | 0.0 | 6.1 | 0.00 | 0.21 | 0.08 | 78 | 1015.6 |
| 20260506014025 | 62 | 120 | 0.9 | 6.1 | 0.00 | 0.21 | 0.08 | 77 | 1015.6 |
| 20260506013522 | 63 | 140 | 0.9 | 5.2 | 0.00 | 0.21 | 0.08 | 77 | 1015.7 |
| 20260506013037 | 63 | 131 | 0.0 | 5.2 | 0.00 | 0.21 | 0.08 | 77 | 1015.5 |
| 20260506012525 | 63 | 137 | 0.9 | 5.2 | 0.00 | 0.21 | 0.08 | 78 | 1015.6 |
| 20260506012022 | 63 | 0 | 0.0 | 2.6 | 0.00 | 0.21 | 0.08 | 77 | 1015.6 |
| 20260506011540 | 62 | 113 | 0.0 | 3.5 | 0.00 | 0.21 | 0.08 | 79 | 1015.6 |
| 20260506011023 | 62 | 129 | 0.9 | 3.5 | 0.00 | 0.21 | 0.08 | 79 | 1015.6 |
| 20260506010525 | 62 | 143 | 0.0 | 1.7 | 0.00 | 0.21 | 0.08 | 79 | 1015.6 |
| 20260506010043 | 61 | 153 | 0.0 | 3.5 | 0.00 | 0.21 | 0.08 | 80 | 1015.5 |
| 20260506005522 | 62 | 136 | 0.0 | 3.5 | 0.00 | 0.21 | 0.08 | 79 | 1015.5 |
| 20260506005025 | 61 | 135 | 0.0 | 2.6 | 0.00 | 0.21 | 0.08 | 81 | 1015.5 |
| 20260506004538 | 60 | 112 | 0.0 | 2.6 | 0.00 | 0.21 | 0.08 | 81 | 1015.4 |
| 20260506004029 | 60 | 127 | 0.0 | 3.5 | 0.00 | 0.21 | 0.08 | 81 | 1015.3 |
| 20260506003525 | 61 | 123 | 0.0 | 3.5 | 0.00 | 0.21 | 0.08 | 80 | 1015.4 |
| 20260506003041 | 61 | 134 | 0.0 | 3.5 | 0.00 | 0.21 | 0.08 | 79 | 1015.3 |
| 20260506002525 | 61 | 155 | 0.0 | 2.6 | 0.00 | 0.21 | 0.08 | 80 | 1015.4 |
| 20260506002025 | 61 | 0 | 0.0 | 2.6 | 0.00 | 0.21 | 0.08 | 80 | 1015.3 |
| 20260506001538 | 61 | 110 | 0.0 | 2.6 | 0.00 | 0.21 | 0.08 | 81 | 1015.3 |
| 20260506001025 | 61 | 0 | 0.9 | 2.6 | 0.00 | 0.21 | 0.08 | 80 | 1015.3 |
| 20260506000524 | 61 | 0 | 0.0 | 2.6 | 0.00 | 0.21 | 0.08 | 80 | 1015.2 |
| 20260506000037 | 61 | 125 | 0.0 | 3.5 | 0.00 | 0.21 | 0.08 | 81 | 1015.2 |
| 20260505235525 | 61 | 0 | 0.0 | 4.3 | 0.00 | 0.21 | 0.08 | 80 | 1015.3 |
| 20260505235025 | 61 | 0 | 0.0 | 4.3 | 0.00 | 0.21 | 0.08 | 80 | 1015.2 |
| 20260505234540 | 60 | 0 | 0.0 | 3.5 | 0.00 | 0.21 | 0.08 | 81 | 1015.3 |
| 20260505234025 | 60 | 124 | 0.0 | 6.1 | 0.00 | 0.21 | 0.08 | 82 | 1015.2 |
| 20260505233525 | 60 | 141 | 0.9 | 6.1 | 0.00 | 0.21 | 0.08 | 82 | 1015.2 |
| 20260505233042 | 60 | 169 | 0.9 | 6.1 | 0.00 | 0.21 | 0.08 | 82 | 1015.3 |